Terminal Aerodrome Forecast
Issued by NWS

Home | Current Version | Previous Version | Text Only | Print | Product List | Glossary On
Versions: 1 2 3 4 5 6 7 8 9 10 11 12 13 14 15 16 17 18 19 20 21 22 23 24
687
FTUS43 KDLH 080352 AAC
TAFHIB
TAF AMD
KHIB 080352Z 0804/0824 30005KT 2SM -SN BR FEW019 BKN026 OVC035
     FM081000 33012KT 4SM -SN OVC020
     FM081800 33011G17KT P6SM VCSH OVC015
     FM082200 32010KT P6SM OVC015=

USA.gov is the U.S. government's official web portal to all federal, state and local government web resources and services.